Location: Berduj
(43.0019°N, 22.3781°E)
Time: 12:15:52
(UTC+00:00)

Cosmos 1328 - Pass Details

Date: 19 October 2019
Orbit: 531 x 553 km, 82.5° (Epoch: 18 November)

Event Time Altitude Azimuth Distance (km) Brightness Sun altitude
Rises 16:15:09 0° 358° (N) 2,711 7.3 -6.8°
Reaches altitude 10° 16:17:24 10° 5° (N) 1,810 6.3 -7.2°
Maximum altitude 16:21:13 44° 78° (ENE) 757 4.1 -7.9°
Drops below altitude 10° 16:24:58 10° 151° (SSE) 1,784 6.2 -8.6°
Sets 16:27:10 0° 158° (SSE) 2,667 7.1 -9.0°
